owner,sensor,date,latitude,longitude,vertical_datum,sea_water_speed,direction_of_sea_water_velocity,upward_sea_water_velocity,qcFlag
Anadarko,ioos:station:wmo:42373:1,2022-08-01T00:08:00Z,27.3539,-94.6254,79.0,31.6,111.1,-9999.0,'111111111,111111111,999999991'
Anadarko,ioos:station:wmo:42373:1,2022-08-01T00:28:00Z,27.3539,-94.6254,79.0,30.6,109.1,-9999.0,'111111111,111111111,999999991'
Anadarko,ioos:station:wmo:42373:1,2022-08-01T00:48:00Z,27.3539,-94.6254,79.0,30.0,109.7,-9999.0,'111111111,111111111,999999991'
Anadarko,ioos:station:wmo:42373:1,2022-08-01T01:08:00Z,27.3539,-94.6254,79.0,32.6,112.6,-9999.0,'111111111,111111111,999999991'
Anadarko,ioos:station:wmo:42373:1,2022-08-01T01:28:00Z,27.3539,-94.6254,79.0,34.2,111.8,-9999.0,'111111111,111111111,999999991'
Anadarko,ioos:station:wmo:42373:1,2022-08-01T01:48:00Z,27.3539,-94.6254,79.0,37.6,109.3,-9999.0,'111111111,111111111,999999991'
Anadarko,ioos:station:wmo:42373:1,2022-08-01T02:08:00Z,27.3539,-94.6254,79.0,39.1,111.0,-9999.0,'111111111,111111111,999999991'
Anadarko,ioos:station:wmo:42373:1,2022-08-01T02:28:00Z,27.3539,-94.6254,79.0,39.1,110.3,-9999.0,'111111111,111111111,999999991'
Anadarko,ioos:station:wmo:42373:1,2022-08-01T02:48:00Z,27.3539,-94.6254,79.0,39.0,109.5,-9999.0,'111111111,111111111,999999991'
Anadarko,ioos:station:wmo:42373:1,2022-08-01T03:08:00Z,27.3539,-94.6254,79.0,39.0,109.6,-9999.0,'111111111,111111111,999999991'
Anadarko,ioos:station:wmo:42373:1,2022-08-01T03:28:00Z,27.3539,-94.6254,79.0,39.5,108.8,-9999.0,'111111111,111111111,999999991'
Anadarko,ioos:station:wmo:42373:1,2022-08-01T03:48:00Z,27.3539,-94.6254,79.0,39.7,107.4,-9999.0,'111111111,111111111,999999991'
Anadarko,ioos:station:wmo:42373:1,2022-08-01T04:08:00Z,27.3539,-94.6254,79.0,39.2,109.1,-9999.0,'111111111,111111111,999999991'
Anadarko,ioos:station:wmo:42373:1,2022-08-01T04:28:00Z,27.3539,-94.6254,79.0,39.8,109.2,-9999.0,'111111111,111111111,999999991'
Anadarko,ioos:station:wmo:42373:1,2022-08-01T04:48:00Z,27.3539,-94.6254,79.0,39.9,108.7,-9999.0,'111111111,111111111,999999991'
Anadarko,ioos:station:wmo:42373:1,2022-08-01T05:08:00Z,27.3539,-94.6254,79.0,40.4,107.6,-9999.0,'111111111,111111111,999999991'
Anadarko,ioos:station:wmo:42373:1,2022-08-01T05:28:00Z,27.3539,-94.6254,79.0,42.0,108.0,-9999.0,'111111111,111111111,999999991'
Anadarko,ioos:station:wmo:42373:1,2022-08-01T05:48:00Z,27.3539,-94.6254,79.0,42.4,109.5,-9999.0,'111111111,111111111,999999991'
Anadarko,ioos:station:wmo:42373:1,2022-08-01T06:08:00Z,27.3539,-94.6254,79.0,42.4,109.0,-9999.0,'111111111,111111111,999999991'
Anadarko,ioos:station:wmo:42373:1,2022-08-01T06:28:00Z,27.3539,-94.6254,79.0,43.6,111.7,-9999.0,'111111111,111111111,999999991'
Anadarko,ioos:station:wmo:42373:1,2022-08-01T06:48:00Z,27.3539,-94.6254,79.0,44.0,114.9,-9999.0,'111111111,111111111,999999991'
Anadarko,ioos:station:wmo:42373:1,2022-08-01T07:08:00Z,27.3539,-94.6254,79.0,43.8,114.3,-9999.0,'111111111,111111111,999999991'
Anadarko,ioos:station:wmo:42373:1,2022-08-01T07:28:00Z,27.3539,-94.6254,79.0,44.1,116.8,-9999.0,'111111111,111111111,999999991'
Anadarko,ioos:station:wmo:42373:1,2022-08-01T07:48:00Z,27.3539,-94.6254,79.0,43.5,116.8,-9999.0,'111111111,111111111,999999991'
Anadarko,ioos:station:wmo:42373:1,2022-08-01T08:08:00Z,27.3539,-94.6254,79.0,42.7,114.2,-9999.0,'111111111,111111111,999999991'
Anadarko,ioos:station:wmo:42373:1,2022-08-01T08:28:00Z,27.3539,-94.6254,79.0,41.0,111.9,-9999.0,'111111111,111111111,999999991'
Anadarko,ioos:station:wmo:42373:1,2022-08-01T08:48:00Z,27.3539,-94.6254,79.0,39.0,111.2,-9999.0,'111111111,111111111,999999991'
Anadarko,ioos:station:wmo:42373:1,2022-08-01T09:08:00Z,27.3539,-94.6254,79.0,37.9,110.1,-9999.0,'111111111,111111111,999999991'
Anadarko,ioos:station:wmo:42373:1,2022-08-01T09:28:00Z,27.3539,-94.6254,79.0,37.0,109.3,-9999.0,'111111111,111111111,999999991'
Anadarko,ioos:station:wmo:42373:1,2022-08-01T09:48:00Z,27.3539,-94.6254,79.0,36.0,110.9,-9999.0,'111111111,111111111,999999991'
Anadarko,ioos:station:wmo:42373:1,2022-08-01T10:08:00Z,27.3539,-94.6254,79.0,34.5,108.4,-9999.0,'111111111,111111111,999999991'
Anadarko,ioos:station:wmo:42373:1,2022-08-01T10:28:00Z,27.3539,-94.6254,79.0,34.6,108.9,-9999.0,'111111111,111111111,999999991'
Anadarko,ioos:station:wmo:42373:1,2022-08-01T10:48:00Z,27.3539,-94.6254,79.0,33.3,108.9,-9999.0,'111111111,111111111,999999991'
Anadarko,ioos:station:wmo:42373:1,2022-08-01T11:08:00Z,27.3539,-94.6254,79.0,31.1,105.3,-9999.0,'111111111,111111111,999999991'
Anadarko,ioos:station:wmo:42373:1,2022-08-01T11:28:00Z,27.3539,-94.6254,79.0,30.0,108.1,-9999.0,'111111111,111111111,999999991'
Anadarko,ioos:station:wmo:42373:1,2022-08-01T11:48:00Z,27.3539,-94.6254,79.0,28.5,105.9,-9999.0,'111111111,111111111,999999991'
Anadarko,ioos:station:wmo:42373:1,2022-08-01T12:08:00Z,27.3539,-94.6254,79.0,27.7,104.4,-9999.0,'111111111,111111111,999999991'
Anadarko,ioos:station:wmo:42373:1,2022-08-01T12:28:00Z,27.3539,-94.6254,79.0,28.6,106.5,-9999.0,'111111111,111111111,999999991'
Anadarko,ioos:station:wmo:42373:1,2022-08-01T12:48:00Z,27.3539,-94.6254,79.0,27.7,104.8,-9999.0,'111111111,111111111,999999991'
Anadarko,ioos:station:wmo:42373:1,2022-08-01T13:08:00Z,27.3539,-94.6254,79.0,27.0,106.1,-9999.0,'111111111,111111111,999999991'
Anadarko,ioos:station:wmo:42373:1,2022-08-01T13:28:00Z,27.3539,-94.6254,79.0,26.8,104.5,-9999.0,'111111111,111111111,999999991'
Anadarko,ioos:station:wmo:42373:1,2022-08-01T13:48:00Z,27.3539,-94.6254,79.0,25.7,101.7,-9999.0,'111111111,111111111,999999991'
Anadarko,ioos:station:wmo:42373:1,2022-08-01T14:08:00Z,27.3539,-94.6254,79.0,25.7,97.2,-9999.0,'111111111,111111111,999999991'
Anadarko,ioos:station:wmo:42373:1,2022-08-01T14:28:00Z,27.3539,-94.6254,79.0,25.5,97.0,-9999.0,'111111111,111111111,999999991'
Anadarko,ioos:station:wmo:42373:1,2022-08-01T14:48:00Z,27.3539,-94.6254,79.0,27.2,99.7,-9999.0,'111111111,111111111,999999991'
Anadarko,ioos:station:wmo:42373:1,2022-08-01T15:08:00Z,27.3539,-94.6254,79.0,27.2,99.1,-9999.0,'111111111,111111111,999999991'
Anadarko,ioos:station:wmo:42373:1,2022-08-01T15:28:00Z,27.3539,-94.6254,79.0,27.6,99.6,-9999.0,'111111111,111111111,999999991'
Anadarko,ioos:station:wmo:42373:1,2022-08-01T15:48:00Z,27.3539,-94.6254,79.0,27.7,100.6,-9999.0,'111111111,111111111,999999991'
Anadarko,ioos:station:wmo:42373:1,2022-08-01T16:08:00Z,27.3539,-94.6254,79.0,28.8,99.8,-9999.0,'111111111,111111111,999999991'
Anadarko,ioos:station:wmo:42373:1,2022-08-01T16:28:00Z,27.3539,-94.6254,79.0,29.5,102.5,-9999.0,'111111111,111111111,999999991'
Anadarko,ioos:station:wmo:42373:1,2022-08-01T16:48:00Z,27.3539,-94.6254,79.0,28.7,104.3,-9999.0,'111111111,111111111,999999991'
Anadarko,ioos:station:wmo:42373:1,2022-08-01T17:08:00Z,27.3539,-94.6254,79.0,29.8,105.6,-9999.0,'111111111,111111111,999999991'
Anadarko,ioos:station:wmo:42373:1,2022-08-01T17:28:00Z,27.3539,-94.6254,79.0,29.2,103.1,-9999.0,'111111111,111111111,999999991'
Anadarko,ioos:station:wmo:42373:1,2022-08-01T17:48:00Z,27.3539,-94.6254,79.0,29.0,103.2,-9999.0,'111111111,111111111,999999991'
Anadarko,ioos:station:wmo:42373:1,2022-08-01T18:08:00Z,27.3539,-94.6254,79.0,28.8,102.4,-9999.0,'111111111,111111111,999999991'
Anadarko,ioos:station:wmo:42373:1,2022-08-01T18:28:00Z,27.3539,-94.6254,79.0,28.7,102.3,-9999.0,'111111111,111111111,999999991'
Anadarko,ioos:station:wmo:42373:1,2022-08-01T18:48:00Z,27.3539,-94.6254,79.0,29.3,100.4,-9999.0,'111111111,111111111,999999991'
Anadarko,ioos:station:wmo:42373:1,2022-08-01T19:08:00Z,27.3539,-94.6254,79.0,27.8,101.2,-9999.0,'111111111,111111111,999999991'
Anadarko,ioos:station:wmo:42373:1,2022-08-01T19:28:00Z,27.3539,-94.6254,79.0,28.2,100.8,-9999.0,'111111111,111111111,999999991'
Anadarko,ioos:station:wmo:42373:1,2022-08-01T19:48:00Z,27.3539,-94.6254,79.0,29.2,97.3,-9999.0,'111111111,111111111,999999991'
Anadarko,ioos:station:wmo:42373:1,2022-08-01T20:08:00Z,27.3539,-94.6254,79.0,28.8,97.8,-9999.0,'111111111,111111111,999999991'
Anadarko,ioos:station:wmo:42373:1,2022-08-01T20:28:00Z,27.3539,-94.6254,79.0,28.9,98.6,-9999.0,'111111111,111111111,999999991'
Anadarko,ioos:station:wmo:42373:1,2022-08-01T20:48:00Z,27.3539,-94.6254,79.0,28.9,98.7,-9999.0,'111111111,111111111,999999991'
Anadarko,ioos:station:wmo:42373:1,2022-08-01T21:08:00Z,27.3539,-94.6254,79.0,28.3,97.9,-9999.0,'111111111,111111111,999999991'
Anadarko,ioos:station:wmo:42373:1,2022-08-01T21:28:00Z,27.3539,-94.6254,79.0,28.7,98.6,-9999.0,'111111111,111111111,999999991'
Anadarko,ioos:station:wmo:42373:1,2022-08-01T21:48:00Z,27.3539,-94.6254,79.0,28.9,101.6,-9999.0,'111111111,111111111,999999991'
Anadarko,ioos:station:wmo:42373:1,2022-08-01T22:08:00Z,27.3539,-94.6254,79.0,28.0,100.7,-9999.0,'111111111,111111111,999999991'
Anadarko,ioos:station:wmo:42373:1,2022-08-01T22:28:00Z,27.3539,-94.6254,79.0,28.8,100.2,-9999.0,'111111111,111111111,999999991'
Anadarko,ioos:station:wmo:42373:1,2022-08-01T22:48:00Z,27.3539,-94.6254,79.0,28.8,100.2,-9999.0,'111111111,111111111,999999991'
Anadarko,ioos:station:wmo:42373:1,2022-08-01T23:08:00Z,27.3539,-94.6254,79.0,27.9,99.7,-9999.0,'111111111,111111111,999999991'
Anadarko,ioos:station:wmo:42373:1,2022-08-01T23:28:00Z,27.3539,-94.6254,79.0,28.9,99.2,-9999.0,'111111111,111111111,999999991'
Anadarko,ioos:station:wmo:42373:1,2022-08-01T23:48:00Z,27.3539,-94.6254,79.0,28.5,100.3,-9999.0,'111111111,111111111,999999991'
Anadarko,ioos:station:wmo:42373:1,2022-08-02T00:08:00Z,27.3539,-94.6254,79.0,29.6,100.1,-9999.0,'111111111,111111111,999999991'
Anadarko,ioos:station:wmo:42373:1,2022-08-02T00:28:00Z,27.3539,-94.6254,79.0,30.7,99.7,-9999.0,'111111111,111111111,999999991'
Anadarko,ioos:station:wmo:42373:1,2022-08-02T00:48:00Z,27.3539,-94.6254,79.0,31.2,99.2,-9999.0,'111111111,111111111,999999991'
Anadarko,ioos:station:wmo:42373:1,2022-08-02T01:08:00Z,27.3539,-94.6254,79.0,31.9,98.8,-9999.0,'111111111,111111111,999999991'
Anadarko,ioos:station:wmo:42373:1,2022-08-02T01:28:00Z,27.3539,-94.6254,79.0,31.7,100.0,-9999.0,'111111111,111111111,999999991'
Anadarko,ioos:station:wmo:42373:1,2022-08-02T01:48:00Z,27.3539,-94.6254,79.0,33.1,97.5,-9999.0,'111111111,111111111,999999991'
Anadarko,ioos:station:wmo:42373:1,2022-08-02T02:08:00Z,27.3539,-94.6254,79.0,33.9,97.5,-9999.0,'111111111,111111111,999999991'
Anadarko,ioos:station:wmo:42373:1,2022-08-02T02:28:00Z,27.3539,-94.6254,79.0,33.4,98.3,-9999.0,'111111111,111111111,999999991'
Anadarko,ioos:station:wmo:42373:1,2022-08-02T02:48:00Z,27.3539,-94.6254,79.0,32.9,97.9,-9999.0,'111111111,111111111,999999991'
Anadarko,ioos:station:wmo:42373:1,2022-08-02T03:08:00Z,27.3539,-94.6254,79.0,31.2,96.1,-9999.0,'111111111,111111111,999999991'
Anadarko,ioos:station:wmo:42373:1,2022-08-02T03:28:00Z,27.3539,-94.6254,79.0,31.3,94.4,-9999.0,'111111111,111111111,999999991'
Anadarko,ioos:station:wmo:42373:1,2022-08-02T03:48:00Z,27.3539,-94.6254,79.0,30.7,93.6,-9999.0,'111111111,111111111,999999991'
Anadarko,ioos:station:wmo:42373:1,2022-08-02T04:08:00Z,27.3539,-94.6254,79.0,31.4,94.0,-9999.0,'111111111,111111111,999999991'
Anadarko,ioos:station:wmo:42373:1,2022-08-02T04:28:00Z,27.3539,-94.6254,79.0,32.4,94.1,-9999.0,'111111111,111111111,999999991'
Anadarko,ioos:station:wmo:42373:1,2022-08-02T04:48:00Z,27.3539,-94.6254,79.0,32.5,96.9,-9999.0,'111111111,111111111,999999991'
Anadarko,ioos:station:wmo:42373:1,2022-08-02T05:08:00Z,27.3539,-94.6254,79.0,32.0,95.2,-9999.0,'111111111,111111111,999999991'
Anadarko,ioos:station:wmo:42373:1,2022-08-02T05:28:00Z,27.3539,-94.6254,79.0,31.8,94.1,-9999.0,'111111111,111111111,999999991'
Anadarko,ioos:station:wmo:42373:1,2022-08-02T05:48:00Z,27.3539,-94.6254,79.0,31.8,97.0,-9999.0,'111111111,111111111,999999991'
Anadarko,ioos:station:wmo:42373:1,2022-08-02T06:08:00Z,27.3539,-94.6254,79.0,31.6,96.9,-9999.0,'111111111,111111111,999999991'
Anadarko,ioos:station:wmo:42373:1,2022-08-02T06:28:00Z,27.3539,-94.6254,79.0,32.4,96.7,-9999.0,'111111111,111111111,999999991'
Anadarko,ioos:station:wmo:42373:1,2022-08-02T06:48:00Z,27.3539,-94.6254,79.0,33.1,98.2,-9999.0,'111111111,111111111,999999991'
Anadarko,ioos:station:wmo:42373:1,2022-08-02T07:08:00Z,27.3539,-94.6254,79.0,32.6,94.9,-9999.0,'111111111,111111111,999999991'
Anadarko,ioos:station:wmo:42373:1,2022-08-02T07:28:00Z,27.3539,-94.6254,79.0,32.8,95.4,-9999.0,'111111111,111111111,999999991'
Anadarko,ioos:station:wmo:42373:1,2022-08-02T07:48:00Z,27.3539,-94.6254,79.0,32.1,96.1,-9999.0,'111111111,111111111,999999991'
Anadarko,ioos:station:wmo:42373:1,2022-08-02T08:08:00Z,27.3539,-94.6254,79.0,33.1,95.9,-9999.0,'111111111,111111111,999999991'
Anadarko,ioos:station:wmo:42373:1,2022-08-02T08:28:00Z,27.3539,-94.6254,79.0,31.7,94.7,-9999.0,'111111111,111111111,999999991'
Anadarko,ioos:station:wmo:42373:1,2022-08-02T08:48:00Z,27.3539,-94.6254,79.0,31.2,96.3,-9999.0,'111111111,111111111,999999991'
Anadarko,ioos:station:wmo:42373:1,2022-08-02T09:08:00Z,27.3539,-94.6254,79.0,31.1,98.7,-9999.0,'111111111,111111111,999999991'
Anadarko,ioos:station:wmo:42373:1,2022-08-02T09:28:00Z,27.3539,-94.6254,79.0,32.5,99.0,-9999.0,'111111111,111111111,999999991'
Anadarko,ioos:station:wmo:42373:1,2022-08-02T09:48:00Z,27.3539,-94.6254,79.0,31.9,99.8,-9999.0,'111111111,111111111,999999991'
Anadarko,ioos:station:wmo:42373:1,2022-08-02T10:08:00Z,27.3539,-94.6254,79.0,31.2,100.2,-9999.0,'111111111,111111111,999999991'
Anadarko,ioos:station:wmo:42373:1,2022-08-02T10:28:00Z,27.3539,-94.6254,79.0,30.7,99.2,-9999.0,'111111111,111111111,999999991'
Anadarko,ioos:station:wmo:42373:1,2022-08-02T10:48:00Z,27.3539,-94.6254,79.0,29.1,98.1,-9999.0,'111111111,111111111,999999991'
Anadarko,ioos:station:wmo:42373:1,2022-08-02T11:08:00Z,27.3539,-94.6254,79.0,28.0,97.2,-9999.0,'111111111,111111111,999999991'
Anadarko,ioos:station:wmo:42373:1,2022-08-02T11:28:00Z,27.3539,-94.6254,79.0,29.0,99.5,-9999.0,'111111111,111111111,999999991'
Anadarko,ioos:station:wmo:42373:1,2022-08-02T11:48:00Z,27.3539,-94.6254,79.0,28.8,100.0,-9999.0,'111111111,111111111,999999991'
Anadarko,ioos:station:wmo:42373:1,2022-08-02T12:08:00Z,27.3539,-94.6254,79.0,28.3,104.3,-9999.0,'111111111,111111111,999999991'
Anadarko,ioos:station:wmo:42373:1,2022-08-02T12:28:00Z,27.3539,-94.6254,79.0,28.8,104.9,-9999.0,'111111111,111111111,999999991'
Anadarko,ioos:station:wmo:42373:1,2022-08-02T12:48:00Z,27.3539,-94.6254,79.0,29.4,103.0,-9999.0,'111111111,111111111,999999991'
Anadarko,ioos:station:wmo:42373:1,2022-08-02T13:08:00Z,27.3539,-94.6254,79.0,29.9,102.0,-9999.0,'111111111,111111111,999999991'
Anadarko,ioos:station:wmo:42373:1,2022-08-02T13:28:00Z,27.3539,-94.6254,79.0,29.6,99.5,-9999.0,'111111111,111111111,999999991'
Anadarko,ioos:station:wmo:42373:1,2022-08-02T13:48:00Z,27.3539,-94.6254,79.0,28.9,101.6,-9999.0,'111111111,111111111,999999991'
Anadarko,ioos:station:wmo:42373:1,2022-08-02T14:08:00Z,27.3539,-94.6254,79.0,29.1,102.3,-9999.0,'111111111,111111111,999999991'
Anadarko,ioos:station:wmo:42373:1,2022-08-02T14:28:00Z,27.3539,-94.6254,79.0,29.2,100.8,-9999.0,'111111111,111111111,999999991'
Anadarko,ioos:station:wmo:42373:1,2022-08-02T14:48:00Z,27.3539,-94.6254,79.0,28.4,100.6,-9999.0,'111111111,111111111,999999991'
Anadarko,ioos:station:wmo:42373:1,2022-08-02T15:08:00Z,27.3539,-94.6254,79.0,28.5,100.3,-9999.0,'111111111,111111111,999999991'
Anadarko,ioos:station:wmo:42373:1,2022-08-02T15:28:00Z,27.3539,-94.6254,79.0,28.9,100.4,-9999.0,'111111111,111111111,999999991'
Anadarko,ioos:station:wmo:42373:1,2022-08-02T15:48:00Z,27.3539,-94.6254,79.0,29.0,99.9,-9999.0,'111111111,111111111,999999991'
Anadarko,ioos:station:wmo:42373:1,2022-08-02T16:08:00Z,27.3539,-94.6254,79.0,29.7,100.7,-9999.0,'111111111,111111111,999999991'
Anadarko,ioos:station:wmo:42373:1,2022-08-02T16:28:00Z,27.3539,-94.6254,79.0,29.6,101.1,-9999.0,'111111111,111111111,999999991'
Anadarko,ioos:station:wmo:42373:1,2022-08-02T16:48:00Z,27.3539,-94.6254,79.0,29.5,101.3,-9999.0,'111111111,111111111,999999991'
Anadarko,ioos:station:wmo:42373:1,2022-08-02T17:08:00Z,27.3539,-94.6254,79.0,29.3,101.6,-9999.0,'111111111,111111111,999999991'
Anadarko,ioos:station:wmo:42373:1,2022-08-02T17:28:00Z,27.3539,-94.6254,79.0,29.6,100.7,-9999.0,'111111111,111111111,999999991'
Anadarko,ioos:station:wmo:42373:1,2022-08-02T17:48:00Z,27.3539,-94.6254,79.0,28.4,98.9,-9999.0,'111111111,111111111,999999991'
Anadarko,ioos:station:wmo:42373:1,2022-08-02T18:08:00Z,27.3539,-94.6254,79.0,27.3,98.8,-9999.0,'111111111,111111111,999999991'
Anadarko,ioos:station:wmo:42373:1,2022-08-02T18:28:00Z,27.3539,-94.6254,79.0,26.9,97.3,-9999.0,'111111111,111111111,999999991'
Anadarko,ioos:station:wmo:42373:1,2022-08-02T18:48:00Z,27.3539,-94.6254,79.0,26.4,97.8,-9999.0,'111111111,111111111,999999991'
Anadarko,ioos:station:wmo:42373:1,2022-08-02T19:08:00Z,27.3539,-94.6254,79.0,26.2,99.5,-9999.0,'111111111,111111111,999999991'
Anadarko,ioos:station:wmo:42373:1,2022-08-02T19:28:00Z,27.3539,-94.6254,79.0,25.2,98.9,-9999.0,'111111111,111111111,999999991'
Anadarko,ioos:station:wmo:42373:1,2022-08-02T19:48:00Z,27.3539,-94.6254,79.0,23.9,97.0,-9999.0,'111111111,111111111,999999991'
Anadarko,ioos:station:wmo:42373:1,2022-08-02T20:08:00Z,27.3539,-94.6254,79.0,23.6,95.6,-9999.0,'111111111,111111111,999999991'
Anadarko,ioos:station:wmo:42373:1,2022-08-02T20:28:00Z,27.3539,-94.6254,79.0,22.5,90.0,-9999.0,'111111111,111111111,999999991'
Anadarko,ioos:station:wmo:42373:1,2022-08-02T20:48:00Z,27.3539,-94.6254,79.0,23.2,90.7,-9999.0,'111111111,111111111,999999991'
Anadarko,ioos:station:wmo:42373:1,2022-08-02T21:08:00Z,27.3539,-94.6254,79.0,21.9,88.4,-9999.0,'111111111,111111111,999999991'
Anadarko,ioos:station:wmo:42373:1,2022-08-02T21:28:00Z,27.3539,-94.6254,79.0,22.1,87.7,-9999.0,'111111111,111111111,999999991'
Anadarko,ioos:station:wmo:42373:1,2022-08-02T21:48:00Z,27.3539,-94.6254,79.0,21.6,90.3,-9999.0,'111111111,111111111,999999991'
Anadarko,ioos:station:wmo:42373:1,2022-08-02T22:08:00Z,27.3539,-94.6254,79.0,21.5,88.7,-9999.0,'111111111,111111111,999999991'
Anadarko,ioos:station:wmo:42373:1,2022-08-02T22:28:00Z,27.3539,-94.6254,79.0,23.1,91.2,-9999.0,'111111111,111111111,999999991'
Anadarko,ioos:station:wmo:42373:1,2022-08-02T22:48:00Z,27.3539,-94.6254,79.0,22.8,91.5,-9999.0,'111111111,111111111,999999991'
Anadarko,ioos:station:wmo:42373:1,2022-08-02T23:08:00Z,27.3539,-94.6254,79.0,21.9,92.6,-9999.0,'111111111,111111111,999999991'
Anadarko,ioos:station:wmo:42373:1,2022-08-02T23:28:00Z,27.3539,-94.6254,79.0,21.3,92.2,-9999.0,'111111111,111111111,999999991'
Anadarko,ioos:station:wmo:42373:1,2022-08-02T23:48:00Z,27.3539,-94.6254,79.0,20.8,93.3,-9999.0,'111111111,111111111,999999991'
Anadarko,ioos:station:wmo:42373:1,2022-08-03T00:08:00Z,27.3539,-94.6254,79.0,21.9,89.7,-9999.0,'111111111,111111111,999999991'
Anadarko,ioos:station:wmo:42373:1,2022-08-03T00:28:00Z,27.3539,-94.6254,79.0,21.2,87.8,-9999.0,'111111111,111111111,999999991'
Anadarko,ioos:station:wmo:42373:1,2022-08-03T00:48:00Z,27.3539,-94.6254,79.0,20.7,88.9,-9999.0,'111111111,111111111,999999991'
Anadarko,ioos:station:wmo:42373:1,2022-08-03T01:08:00Z,27.3539,-94.6254,79.0,22.3,86.1,-9999.0,'111111111,111111111,999999991'
Anadarko,ioos:station:wmo:42373:1,2022-08-03T01:28:00Z,27.3539,-94.6254,79.0,22.3,84.1,-9999.0,'111111111,111111111,999999991'
Anadarko,ioos:station:wmo:42373:1,2022-08-03T01:48:00Z,27.3539,-94.6254,79.0,26.1,84.5,-9999.0,'111111111,111111111,999999991'
Anadarko,ioos:station:wmo:42373:1,2022-08-03T02:08:00Z,27.3539,-94.6254,79.0,29.3,86.5,-9999.0,'111111111,111111111,999999991'
Anadarko,ioos:station:wmo:42373:1,2022-08-03T02:28:00Z,27.3539,-94.6254,79.0,27.6,85.4,-9999.0,'111111111,111111111,999999991'
Anadarko,ioos:station:wmo:42373:1,2022-08-03T02:48:00Z,27.3539,-94.6254,79.0,29.7,86.7,-9999.0,'111111111,111111111,999999991'
Anadarko,ioos:station:wmo:42373:1,2022-08-03T03:08:00Z,27.3539,-94.6254,79.0,30.9,87.0,-9999.0,'111111111,111111111,999999991'
Anadarko,ioos:station:wmo:42373:1,2022-08-03T03:28:00Z,27.3539,-94.6254,79.0,30.7,87.9,-9999.0,'111111111,111111111,999999991'
Anadarko,ioos:station:wmo:42373:1,2022-08-03T03:48:00Z,27.3539,-94.6254,79.0,31.0,86.1,-9999.0,'111111111,111111111,999999991'
Anadarko,ioos:station:wmo:42373:1,2022-08-03T04:08:00Z,27.3539,-94.6254,79.0,31.6,87.3,-9999.0,'111111111,111111111,999999991'
Anadarko,ioos:station:wmo:42373:1,2022-08-03T04:28:00Z,27.3539,-94.6254,79.0,31.7,85.7,-9999.0,'111111111,111111111,999999991'
Anadarko,ioos:station:wmo:42373:1,2022-08-03T04:48:00Z,27.3539,-94.6254,79.0,31.8,82.4,-9999.0,'111111111,111111111,999999991'
Anadarko,ioos:station:wmo:42373:1,2022-08-03T05:08:00Z,27.3539,-94.6254,79.0,31.8,81.7,-9999.0,'111111111,111111111,999999991'
Anadarko,ioos:station:wmo:42373:1,2022-08-03T05:28:00Z,27.3539,-94.6254,79.0,32.7,84.4,-9999.0,'111111111,111111111,999999991'
Anadarko,ioos:station:wmo:42373:1,2022-08-03T05:48:00Z,27.3539,-94.6254,79.0,32.0,85.0,-9999.0,'111111111,111111111,999999991'
Anadarko,ioos:station:wmo:42373:1,2022-08-03T06:08:00Z,27.3539,-94.6254,79.0,32.4,87.5,-9999.0,'111111111,111111111,999999991'
Anadarko,ioos:station:wmo:42373:1,2022-08-03T06:28:00Z,27.3539,-94.6254,79.0,32.0,85.9,-9999.0,'111111111,111111111,999999991'
Anadarko,ioos:station:wmo:42373:1,2022-08-03T06:48:00Z,27.3539,-94.6254,79.0,32.4,84.5,-9999.0,'111111111,111111111,999999991'
Anadarko,ioos:station:wmo:42373:1,2022-08-03T07:08:00Z,27.3539,-94.6254,79.0,32.9,83.7,-9999.0,'111111111,111111111,999999991'
Anadarko,ioos:station:wmo:42373:1,2022-08-03T07:28:00Z,27.3539,-94.6254,79.0,33.7,83.4,-9999.0,'111111111,111111111,999999991'
Anadarko,ioos:station:wmo:42373:1,2022-08-03T07:48:00Z,27.3539,-94.6254,79.0,34.6,85.9,-9999.0,'111111111,111111111,999999991'
Anadarko,ioos:station:wmo:42373:1,2022-08-03T08:08:00Z,27.3539,-94.6254,79.0,34.7,87.5,-9999.0,'111111111,111111111,999999991'
Anadarko,ioos:station:wmo:42373:1,2022-08-03T08:28:00Z,27.3539,-94.6254,79.0,34.2,88.2,-9999.0,'111111111,111111111,999999991'
Anadarko,ioos:station:wmo:42373:1,2022-08-03T08:48:00Z,27.3539,-94.6254,79.0,34.9,85.6,-9999.0,'111111111,111111111,999999991'
Anadarko,ioos:station:wmo:42373:1,2022-08-03T09:08:00Z,27.3539,-94.6254,79.0,34.6,86.5,-9999.0,'111111111,111111111,999999991'
Anadarko,ioos:station:wmo:42373:1,2022-08-03T09:28:00Z,27.3539,-94.6254,79.0,36.0,86.8,-9999.0,'111111111,111111111,999999991'
Anadarko,ioos:station:wmo:42373:1,2022-08-03T09:48:00Z,27.3539,-94.6254,79.0,34.9,87.0,-9999.0,'111111111,111111111,999999991'
Anadarko,ioos:station:wmo:42373:1,2022-08-03T10:08:00Z,27.3539,-94.6254,79.0,34.0,86.6,-9999.0,'111111111,111111111,999999991'
Anadarko,ioos:station:wmo:42373:1,2022-08-03T10:28:00Z,27.3539,-94.6254,79.0,32.9,86.0,-9999.0,'111111111,111111111,999999991'
Anadarko,ioos:station:wmo:42373:1,2022-08-03T10:48:00Z,27.3539,-94.6254,79.0,32.2,86.4,-9999.0,'111111111,111111111,999999991'
Anadarko,ioos:station:wmo:42373:1,2022-08-03T11:08:00Z,27.3539,-94.6254,79.0,31.6,85.6,-9999.0,'111111111,111111111,999999991'
Anadarko,ioos:station:wmo:42373:1,2022-08-03T11:28:00Z,27.3539,-94.6254,79.0,30.5,87.4,-9999.0,'111111111,111111111,999999991'
Anadarko,ioos:station:wmo:42373:1,2022-08-03T11:48:00Z,27.3539,-94.6254,79.0,29.8,85.0,-9999.0,'111111111,111111111,999999991'
Anadarko,ioos:station:wmo:42373:1,2022-08-03T12:08:00Z,27.3539,-94.6254,79.0,28.7,85.0,-9999.0,'111111111,111111111,999999991'
Anadarko,ioos:station:wmo:42373:1,2022-08-03T12:28:00Z,27.3539,-94.6254,79.0,27.5,82.3,-9999.0,'111111111,111111111,999999991'
Anadarko,ioos:station:wmo:42373:1,2022-08-03T12:48:00Z,27.3539,-94.6254,79.0,28.1,84.9,-9999.0,'111111111,111111111,999999991'
Anadarko,ioos:station:wmo:42373:1,2022-08-03T13:08:00Z,27.3539,-94.6254,79.0,28.6,86.0,-9999.0,'111111111,111111111,999999991'
Anadarko,ioos:station:wmo:42373:1,2022-08-03T13:28:00Z,27.3539,-94.6254,79.0,29.6,87.1,-9999.0,'111111111,111111111,999999991'